Location: Wells
(51.2093°N, 2.6446°W)
Time: 07:04:36
(UTC+00:00)

CUBEBUG 2 - Visible Passes

Search period start: 11 March 2026 00:00
Search period end: 21 March 2026 00:00
Orbit: 548 x 629 km, 97.9° (Epoch: 10 March)

Date Brightness Start Highest point End Pass type
(mag) Time Alt. Az. Time Alt. Az. Time Alt. Az.
11 Mar ? 03:01:06 10° N 03:02:35 21° N 03:02:35 21° N visible
11 Mar ? 04:38:59 10° NW 04:39:06 10° NW 04:39:06 10° NW visible
12 Mar ? 03:08:43 10° N 03:10:23 23° N 03:10:23 23° N visible
13 Mar ? 01:41:21 10° NE 01:41:40 11° NE 01:41:40 11° NE visible
13 Mar ? 03:16:20 10° N 03:18:11 24° N 03:18:11 24° N visible
14 Mar ? 01:48:44 10° NE 01:49:27 14° NE 01:49:27 14° NE visible
14 Mar ? 03:23:57 10° N 03:25:58 25° NNW 03:25:58 25° NNW visible
15 Mar ? 01:56:09 10° NNE 01:57:13 16° NE 01:57:13 16° NE visible
15 Mar ? 03:31:35 10° N 03:33:44 25° NNW 03:33:44 25° NNW visible
16 Mar ? 02:03:35 10° NNE 02:04:58 19° NE 02:04:58 19° NE visible
16 Mar ? 03:39:12 10° N 03:41:29 24° NNW 03:41:29 24° NNW visible
17 Mar ? 02:11:01 10° NNE 02:12:43 22° NE 02:12:43 22° NE visible
17 Mar ? 03:46:50 10° N 03:49:14 23° NW 03:49:14 23° NW visible
18 Mar ? 02:18:28 10° NNE 02:20:27 25° NE 02:20:27 25° NE visible
18 Mar ? 03:54:28 10° N 03:56:58 22° NW 03:56:58 22° NW visible
19 Mar ? 02:25:55 10° NNE 02:28:10 29° NNE 02:28:10 29° NNE visible
19 Mar ? 04:02:07 10° NNW 04:04:41 20° NW 04:04:41 20° NW visible
20 Mar ? 02:33:23 10° NNE 02:35:52 33° NNE 02:35:52 33° NNE visible
20 Mar ? 04:09:48 10° NNW 04:12:23 18° NW 04:12:23 18° NW visible
